| time (UTC) | temp F | wind direction | speed MPH | gust MPH | rain 1hr in | rain 24hr in | rain mn in | humidity % | barometer mb |
| 20260906000511 | 84 | 360 | 9.0 | 15.0 | 0.00 | 0.00 | 0.00 | 58 | 996.1 |
| 20260906000010 | 85 | 15 | 11.0 | 15.0 | 0.00 | 0.00 | 0.00 | 57 | 995.9 |
| 20260905235508 | 85 | 360 | 10.0 | 14.0 | 0.00 | 0.00 | 0.00 | 57 | 995.9 |
| 20260905235108 | 85 | 360 | 11.0 | 15.0 | 0.00 | 0.00 | 0.00 | 57 | 995.9 |
| 20260905234511 | 85 | 344 | 11.0 | 15.0 | 0.00 | 0.00 | 0.00 | 56 | 996.0 |
| 20260905234008 | 86 | 22 | 10.0 | 15.0 | 0.00 | 0.00 | 0.00 | 56 | 995.8 |
| 20260905233512 | 86 | 360 | 9.0 | 15.0 | 0.00 | 0.00 | 0.00 | 55 | 995.8 |
| 20260905233008 | 87 | 17 | 10.0 | 15.0 | 0.00 | 0.00 | 0.00 | 54 | 995.6 |
| 20260905232506 | 87 | 360 | 8.0 | 13.0 | 0.00 | 0.00 | 0.00 | 53 | 995.7 |
| 20260905232006 | 87 | 346 | 7.0 | 13.0 | 0.00 | 0.00 | 0.00 | 53 | 995.8 |
| 20260905231513 | 87 | 360 | 5.0 | 12.0 | 0.00 | 0.00 | 0.00 | 54 | 995.7 |
| 20260905231005 | 87 | 360 | 9.0 | 14.0 | 0.00 | 0.00 | 0.00 | 54 | 995.8 |
| 20260905230505 | 87 | 360 | 7.0 | 12.0 | 0.00 | 0.00 | 0.00 | 54 | 995.7 |
| 20260905230005 | 87 | 26 | 5.0 | 13.0 | 0.00 | 0.00 | 0.00 | 54 | 995.7 |
| 20260905225507 | 87 | 22 | 9.0 | 13.0 | 0.00 | 0.00 | 0.00 | 54 | 995.6 |
| 20260905225105 | 87 | 360 | 10.0 | 13.0 | 0.00 | 0.00 | 0.00 | 54 | 995.6 |
| 20260905224504 | 87 | 21 | 10.0 | 13.0 | 0.00 | 0.00 | 0.00 | 54 | 995.6 |
| 20260905224004 | 87 | 15 | 8.0 | 13.0 | 0.00 | 0.00 | 0.00 | 53 | 995.6 |
| 20260905223503 | 87 | 51 | 4.0 | 13.0 | 0.00 | 0.00 | 0.00 | 54 | 995.5 |
| 20260905223004 | 88 | 360 | 8.0 | 13.0 | 0.00 | 0.00 | 0.00 | 53 | 995.6 |
| 20260905222504 | 88 | 360 | 8.0 | 18.0 | 0.00 | 0.00 | 0.00 | 53 | 995.6 |
| 20260905222006 | 87 | 351 | 11.0 | 18.0 | 0.00 | 0.00 | 0.00 | 54 | 995.5 |
| 20260905221505 | 87 | 360 | 7.0 | 12.0 | 0.00 | 0.00 | 0.00 | 54 | 995.5 |
| 20260905221002 | 87 | 355 | 7.0 | 12.0 | 0.00 | 0.00 | 0.00 | 54 | 995.6 |
| 20260905220502 | 87 | 360 | 6.0 | 12.0 | 0.00 | 0.00 | 0.00 | 54 | 995.7 |
| 20260905220002 | 87 | 19 | 7.0 | 15.0 | 0.00 | 0.00 | 0.00 | 54 | 995.7 |
| 20260905215502 | 87 | 18 | 9.0 | 16.0 | 0.00 | 0.00 | 0.00 | 54 | 995.7 |
| 20260905215001 | 87 | 348 | 10.0 | 20.0 | 0.00 | 0.00 | 0.00 | 54 | 995.8 |
| 20260905214502 | 87 | 331 | 9.0 | 20.0 | 0.00 | 0.00 | 0.00 | 54 | 995.6 |
| 20260905214001 | 88 | 360 | 9.0 | 16.0 | 0.00 | 0.00 | 0.00 | 54 | 995.8 |
| 20260905213502 | 88 | 360 | 4.0 | 13.0 | 0.00 | 0.00 | 0.00 | 53 | 995.7 |
| 20260905213001 | 88 | 360 | 10.0 | 13.0 | 0.00 | 0.00 | 0.00 | 53 | 995.7 |
| 20260905212502 | 88 | 360 | 7.0 | 11.0 | 0.00 | 0.00 | 0.00 | 52 | 995.7 |
| 20260905212100 | 88 | 360 | 5.0 | 13.0 | 0.00 | 0.00 | 0.00 | 52 | 995.7 |
| 20260905211600 | 88 | 360 | 7.0 | 13.0 | 0.00 | 0.00 | 0.00 | 53 | 995.7 |
| 20260905211103 | 88 | 360 | 5.0 | 11.0 | 0.00 | 0.00 | 0.00 | 53 | 995.7 |
| 20260905210601 | 88 | 360 | 5.0 | 10.0 | 0.00 | 0.00 | 0.00 | 53 | 995.8 |
| 20260905210107 | 87 | 350 | 5.0 | 12.0 | 0.00 | 0.00 | 0.00 | 54 | 995.7 |
| 20260905205600 | 87 | 32 | 7.0 | 12.0 | 0.00 | 0.00 | 0.00 | 53 | 995.8 |
| 20260905205057 | 88 | 40 | 2.0 | 11.0 | 0.00 | 0.00 | 0.00 | 53 | 995.8 |
| 20260905204058 | 87 | 360 | 7.0 | 12.0 | 0.00 | 0.00 | 0.00 | 53 | 995.9 |
| 20260905203558 | 87 | 360 | 6.0 | 11.0 | 0.00 | 0.00 | 0.00 | 54 | 995.8 |
| 20260905203108 | 87 | 340 | 7.0 | 11.0 | 0.00 | 0.00 | 0.00 | 54 | 995.9 |
| 20260905202553 | 87 | 360 | 7.0 | 11.0 | 0.00 | 0.00 | 0.00 | 54 | 995.9 |
| 20260905202053 | 87 | 360 | 4.0 | 9.0 | 0.00 | 0.00 | 0.00 | 54 | 995.8 |
| 20260905201554 | 87 | 360 | 6.0 | 10.0 | 0.00 | 0.00 | 0.00 | 53 | 995.8 |
| 20260905201052 | 87 | 360 | 4.0 | 9.0 | 0.00 | 0.00 | 0.00 | 54 | 995.8 |
| 20260905200553 | 86 | 360 | 3.0 | 9.0 | 0.00 | 0.00 | 0.00 | 56 | 995.9 |
| 20260905200059 | 86 | 33 | 6.0 | 9.0 | 0.00 | 0.00 | 0.00 | 56 | 996.0 |
| 20260905195551 | 85 | 360 | 4.0 | 9.0 | 0.00 | 0.00 | 0.00 | 57 | 995.9 |
| 20260905195052 | 84 | 5 | 2.0 | 9.0 | 0.00 | 0.00 | 0.00 | 57 | 996.0 |
| 20260905194053 | 85 | 17 | 5.0 | 11.0 | 0.00 | 0.00 | 0.00 | 57 | 996.0 |
| 20260905193555 | 85 | 10 | 6.0 | 11.0 | 0.00 | 0.00 | 0.00 | 57 | 996.0 |
| 20260905193052 | 84 | 332 | 4.0 | 10.0 | 0.00 | 0.00 | 0.00 | 58 | 996.0 |
| 20260905192555 | 84 | 348 | 5.0 | 10.0 | 0.00 | 0.00 | 0.00 | 58 | 996.1 |
| 20260905192053 | 85 | 337 | 5.0 | 11.0 | 0.00 | 0.00 | 0.00 | 58 | 996.1 |
| 20260905191552 | 84 | 317 | 6.0 | 11.0 | 0.00 | 0.00 | 0.00 | 58 | 996.3 |
| 20260905191052 | 84 | 298 | 1.0 | 10.0 | 0.00 | 0.00 | 0.00 | 58 | 996.3 |
| 20260905190551 | 84 | 321 | 3.0 | 11.0 | 0.00 | 0.00 | 0.00 | 59 | 996.3 |
| 20260905190052 | 83 | 306 | 7.0 | 11.0 | 0.00 | 0.00 | 0.00 | 59 | 996.2 |
| 20260905185551 | 83 | 291 | 5.0 | 11.0 | 0.00 | 0.00 | 0.00 | 60 | 996.2 |
| 20260905185051 | 83 | 30 | 2.0 | 12.0 | 0.00 | 0.00 | 0.00 | 61 | 996.1 |
| 20260905184050 | 83 | 360 | 5.0 | 11.0 | 0.00 | 0.00 | 0.00 | 61 | 996.1 |
| 20260905183551 | 83 | 360 | 5.0 | 11.0 | 0.00 | 0.00 | 0.00 | 61 | 996.2 |
| 20260905183050 | 82 | 360 | 2.0 | 13.0 | 0.00 | 0.00 | 0.00 | 62 | 996.1 |
| 20260905182550 | 83 | 329 | 8.0 | 13.0 | 0.00 | 0.00 | 0.00 | 62 | 996.1 |
| 20260905182050 | 82 | 81 | 4.0 | 10.0 | 0.00 | 0.00 | 0.00 | 62 | 996.1 |
| 20260905181550 | 82 | 360 | 6.0 | 9.0 | 0.00 | 0.00 | 0.00 | 63 | 995.9 |
| 20260905181050 | 82 | 360 | 3.0 | 12.0 | 0.00 | 0.00 | 0.00 | 63 | 996.0 |
| 20260905180550 | 82 | 27 | 7.0 | 12.0 | 0.00 | 0.00 | 0.00 | 62 | 996.2 |
| 20260905180049 | 82 | 22 | 5.0 | 12.0 | 0.00 | 0.00 | 0.00 | 62 | 996.1 |
| 20260905175549 | 82 | 26 | 6.0 | 12.0 | 0.00 | 0.00 | 0.00 | 62 | 996.2 |
| 20260905175051 | 82 | 12 | 6.0 | 10.0 | 0.00 | 0.00 | 0.00 | 63 | 996.2 |
| 20260905174049 | 81 | 74 | 2.0 | 8.0 | 0.00 | 0.00 | 0.00 | 65 | 996.3 |
| 20260905173548 | 80 | 360 | 4.0 | 9.0 | 0.00 | 0.00 | 0.00 | 66 | 996.4 |
| 20260905173048 | 80 | 360 | 5.0 | 9.0 | 0.00 | 0.00 | 0.00 | 66 | 996.4 |
| 20260905172548 | 79 | 337 | 4.0 | 6.0 | 0.00 | 0.00 | 0.00 | 68 | 996.5 |
| 20260905172048 | 79 | 360 | 2.0 | 6.0 | 0.00 | 0.00 | 0.00 | 68 | 996.4 |
| 20260905171600 | 79 | 360 | 2.0 | 6.0 | 0.00 | 0.00 | 0.00 | 67 | 996.5 |
| 20260905171048 | 79 | 46 | 0.0 | 7.0 | 0.00 | 0.00 | 0.00 | 68 | 996.5 |
| 20260905170548 | 79 | 54 | 4.0 | 7.0 | 0.00 | 0.00 | 0.00 | 69 | 996.5 |
| 20260905170047 | 78 | 78 | 2.0 | 9.0 | 0.00 | 0.00 | 0.00 | 69 | 996.7 |
| 20260905165545 | 79 | 360 | 6.0 | 11.0 | 0.00 | 0.00 | 0.00 | 68 | 996.6 |
| 20260905165045 | 78 | 360 | 5.0 | 13.0 | 0.00 | 0.00 | 0.00 | 69 | 996.4 |
| 20260905164043 | 78 | 117 | 7.0 | 13.0 | 0.00 | 0.00 | 0.00 | 69 | 996.3 |
| 20260905163543 | 78 | 74 | 7.0 | 12.0 | 0.00 | 0.00 | 0.00 | 70 | 996.1 |
| 20260905163051 | 78 | 360 | 8.0 | 12.0 | 0.00 | 0.00 | 0.00 | 70 | 995.9 |
| 20260905162543 | 78 | 51 | 8.0 | 12.0 | 0.00 | 0.00 | 0.00 | 70 | 996.0 |
| 20260905162042 | 77 | 360 | 6.0 | 11.0 | 0.00 | 0.00 | 0.00 | 71 | 995.9 |
| 20260905161541 | 77 | 360 | 3.0 | 8.0 | 0.00 | 0.00 | 0.00 | 72 | 996.0 |
| 20260905161041 | 76 | 360 | 4.0 | 12.0 | 0.00 | 0.00 | 0.00 | 72 | 995.9 |
| 20260905160540 | 76 | 360 | 7.0 | 10.0 | 0.00 | 0.00 | 0.00 | 74 | 995.9 |
| 20260905160041 | 75 | 360 | 2.0 | 10.0 | 0.00 | 0.00 | 0.00 | 74 | 995.8 |
| 20260905155541 | 75 | 94 | 6.0 | 10.0 | 0.00 | 0.00 | 0.00 | 75 | 995.7 |
| 20260905155041 | 74 | 96 | 2.0 | 9.0 | 0.00 | 0.00 | 0.00 | 76 | 995.7 |
| 20260905154044 | 74 | 75 | 4.0 | 9.0 | 0.00 | 0.00 | 0.00 | 76 | 995.9 |
| 20260905153540 | 73 | 87 | 4.0 | 10.0 | 0.00 | 0.00 | 0.00 | 77 | 995.8 |
| 20260905153040 | 73 | 76 | 7.0 | 10.0 | 0.00 | 0.00 | 0.00 | 77 | 995.9 |
| 20260905152541 | 73 | 87 | 6.0 | 9.0 | 0.00 | 0.00 | 0.00 | 77 | 995.8 |
| 20260905152040 | 73 | 78 | 5.0 | 9.0 | 0.00 | 0.00 | 0.00 | 78 | 996.0 |
| 20260905151540 | 72 | 54 | 5.0 | 10.0 | 0.00 | 0.00 | 0.00 | 78 | 996.0 |
| 20260905151039 | 72 | 360 | 5.0 | 10.0 | 0.00 | 0.00 | 0.00 | 79 | 995.9 |
| 20260905150539 | 72 | 44 | 4.0 | 10.0 | 0.00 | 0.00 | 0.00 | 79 | 995.8 |
| 20260905150045 | 72 | 360 | 7.0 | 10.0 | 0.00 | 0.00 | 0.00 | 79 | 995.9 |
| 20260905145542 | 71 | 40 | 6.0 | 11.0 | 0.00 | 0.00 | 0.00 | 80 | 995.9 |
| 20260905145039 | 70 | 48 | 7.0 | 12.0 | 0.00 | 0.00 | 0.00 | 81 | 996.0 |
| 20260905144038 | 70 | 360 | 7.0 | 12.0 | 0.00 | 0.00 | 0.00 | 82 | 995.7 |
| 20260905143538 | 70 | 360 | 7.0 | 11.0 | 0.00 | 0.00 | 0.00 | 82 | 995.6 |
| 20260905143042 | 69 | 360 | 7.0 | 10.0 | 0.00 | 0.00 | 0.00 | 83 | 995.7 |
| 20260905142538 | 69 | 26 | 6.0 | 10.0 | 0.00 | 0.00 | 0.00 | 83 | 995.9 |
| 20260905142038 | 69 | 40 | 6.0 | 10.0 | 0.00 | 0.00 | 0.00 | 84 | 996.0 |
| 20260905141538 | 68 | 360 | 6.0 | 10.0 | 0.00 | 0.00 | 0.00 | 84 | 996.0 |
| 20260905141037 | 68 | 49 | 5.0 | 10.0 | 0.00 | 0.00 | 0.00 | 85 | 995.9 |
| 20260905140538 | 68 | 30 | 7.0 | 11.0 | 0.00 | 0.00 | 0.00 | 85 | 996.1 |
| 20260905140038 | 68 | 25 | 7.0 | 10.0 | 0.00 | 0.00 | 0.00 | 86 | 995.9 |
| 20260905135538 | 67 | 17 | 7.0 | 10.0 | 0.00 | 0.00 | 0.00 | 86 | 996.0 |
| 20260905135037 | 66 | 5 | 7.0 | 11.0 | 0.00 | 0.00 | 0.00 | 87 | 995.9 |
| 20260905134038 | 66 | 360 | 8.0 | 11.0 | 0.00 | 0.00 | 0.00 | 88 | 995.9 |
| 20260905133537 | 66 | 18 | 8.0 | 11.0 | 0.00 | 0.00 | 0.00 | 89 | 995.8 |
| 20260905133036 | 65 | 360 | 7.0 | 10.0 | 0.00 | 0.00 | 0.00 | 90 | 995.9 |
| 20260905132536 | 65 | 360 | 6.0 | 10.0 | 0.00 | 0.00 | 0.00 | 91 | 995.9 |
| 20260905132036 | 64 | 360 | 7.0 | 10.0 | 0.00 | 0.00 | 0.00 | 92 | 995.8 |
| 20260905131538 | 63 | 360 | 6.0 | 10.0 | 0.00 | 0.00 | 0.00 | 92 | 995.4 |
| 20260905131035 | 63 | 360 | 7.0 | 10.0 | 0.00 | 0.00 | 0.00 | 92 | 995.3 |
| 20260905130537 | 62 | 360 | 6.0 | 11.0 | 0.00 | 0.00 | 0.00 | 91 | 995.1 |
| 20260905130033 | 62 | 360 | 8.0 | 11.0 | 0.00 | 0.00 | 0.00 | 91 | 994.9 |
| 20260905125532 | 62 | 360 | 8.0 | 11.0 | 0.00 | 0.00 | 0.00 | 92 | 994.8 |
| 20260905125032 | 62 | 360 | 8.0 | 12.0 | 0.00 | 0.00 | 0.00 | 91 | 994.7 |
| 20260905124033 | 62 | 360 | 8.0 | 13.0 | 0.00 | 0.00 | 0.00 | 91 | 994.7 |
| 20260905123530 | 62 | 360 | 10.0 | 13.0 | 0.00 | 0.00 | 0.00 | 91 | 994.5 |
| 20260905123038 | 62 | 360 | 9.0 | 12.0 | 0.00 | 0.00 | 0.00 | 91 | 994.4 |
| 20260905122530 | 62 | 360 | 9.0 | 13.0 | 0.00 | 0.00 | 0.00 | 92 | 994.4 |
| 20260905122033 | 62 | 360 | 10.0 | 13.0 | 0.00 | 0.00 | 0.00 | 92 | 994.2 |
| 20260905121536 | 62 | 360 | 9.0 | 12.0 | 0.00 | 0.00 | 0.00 | 92 | 994.2 |
| 20260905121027 | 62 | 360 | 8.0 | 12.0 | 0.00 | 0.00 | 0.00 | 91 | 994.2 |
| 20260905120527 | 62 | 360 | 9.0 | 11.0 | 0.00 | 0.00 | 0.00 | 91 | 994.0 |
| 20260905120027 | 62 | 360 | 8.0 | 10.0 | 0.00 | 0.00 | 0.00 | 91 | 994.0 |
| 20260905115524 | 62 | 360 | 7.0 | 10.0 | 0.00 | 0.00 | 0.00 | 90 | 993.8 |
| 20260905115022 | 63 | 360 | 8.0 | 10.0 | 0.00 | 0.00 | 0.00 | 89 | 993.7 |
| 20260905114026 | 64 | 360 | 6.0 | 9.0 | 0.00 | 0.00 | 0.00 | 89 | 993.6 |
| 20260905113522 | 64 | 360 | 7.0 | 9.0 | 0.00 | 0.00 | 0.00 | 89 | 993.5 |
| 20260905113024 | 64 | 360 | 6.0 | 8.0 | 0.00 | 0.00 | 0.00 | 89 | 993.6 |
| 20260905112521 | 64 | 360 | 6.0 | 8.0 | 0.00 | 0.00 | 0.00 | 89 | 993.5 |
| 20260905112025 | 64 | 360 | 7.0 | 8.0 | 0.00 | 0.00 | 0.00 | 88 | 993.4 |
| 20260905111521 | 64 | 360 | 6.0 | 8.0 | 0.00 | 0.00 | 0.00 | 87 | 993.5 |
| 20260905111018 | 64 | 360 | 6.0 | 8.0 | 0.00 | 0.00 | 0.00 | 88 | 993.4 |
| 20260905110519 | 65 | 360 | 6.0 | 8.0 | 0.00 | 0.00 | 0.00 | 88 | 993.4 |
| 20260905110017 | 65 | 360 | 6.0 | 7.0 | 0.00 | 0.00 | 0.00 | 88 | 993.4 |
| 20260905105516 | 65 | 360 | 6.0 | 7.0 | 0.00 | 0.00 | 0.00 | 88 | 993.3 |
| 20260905105017 | 65 | 360 | 5.0 | 8.0 | 0.00 | 0.00 | 0.00 | 88 | 993.4 |
| 20260905104015 | 65 | 360 | 6.0 | 9.0 | 0.00 | 0.00 | 0.00 | 87 | 993.3 |
| 20260905103515 | 65 | 360 | 7.0 | 9.0 | 0.00 | 0.00 | 0.00 | 87 | 993.1 |
| 20260905103015 | 65 | 360 | 7.0 | 9.0 | 0.00 | 0.00 | 0.00 | 87 | 993.1 |
| 20260905102516 | 65 | 360 | 7.0 | 8.0 | 0.00 | 0.00 | 0.00 | 86 | 993.0 |
| 20260905102013 | 65 | 360 | 7.0 | 8.0 | 0.00 | 0.00 | 0.00 | 87 | 992.8 |
| 20260905101513 | 65 | 360 | 5.0 | 7.0 | 0.00 | 0.00 | 0.00 | 87 | 993.0 |
| 20260905101012 | 65 | 360 | 4.0 | 8.0 | 0.00 | 0.00 | 0.00 | 86 | 992.8 |
| 20260905100511 | 66 | 360 | 7.0 | 8.0 | 0.00 | 0.00 | 0.00 | 85 | 992.8 |
| 20260905100011 | 66 | 360 | 6.0 | 7.0 | 0.00 | 0.00 | 0.00 | 85 | 992.6 |
| 20260905095509 | 66 | 360 | 5.0 | 7.0 | 0.00 | 0.00 | 0.00 | 85 | 992.7 |
| 20260905095012 | 66 | 360 | 5.0 | 7.0 | 0.00 | 0.00 | 0.00 | 84 | 992.5 |
| 20260905094008 | 67 | 360 | 5.0 | 7.0 | 0.00 | 0.00 | 0.00 | 84 | 992.4 |
| 20260905093509 | 67 | 360 | 5.0 | 7.0 | 0.00 | 0.00 | 0.00 | 84 | 992.3 |
| 20260905093007 | 67 | 360 | 5.0 | 7.0 | 0.00 | 0.00 | 0.00 | 84 | 992.6 |
| 20260905092510 | 67 | 360 | 5.0 | 7.0 | 0.00 | 0.00 | 0.00 | 83 | 992.4 |
| 20260905092008 | 68 | 360 | 5.0 | 8.0 | 0.00 | 0.00 | 0.00 | 82 | 992.4 |
| 20260905091505 | 68 | 360 | 6.0 | 8.0 | 0.00 | 0.00 | 0.00 | 82 | 992.4 |
| 20260905091005 | 68 | 360 | 5.0 | 8.0 | 0.00 | 0.00 | 0.00 | 83 | 992.3 |
| 20260905090505 | 68 | 360 | 5.0 | 8.0 | 0.00 | 0.00 | 0.00 | 82 | 992.4 |
| 20260905090006 | 68 | 360 | 5.0 | 8.0 | 0.00 | 0.00 | 0.00 | 81 | 992.5 |
| 20260905085503 | 68 | 360 | 7.0 | 8.0 | 0.00 | 0.00 | 0.00 | 80 | 992.4 |
| 20260905085003 | 69 | 360 | 5.0 | 7.0 | 0.00 | 0.00 | 0.00 | 80 | 992.6 |
| 20260905084059 | 69 | 360 | 4.0 | 6.0 | 0.00 | 0.00 | 0.00 | 80 | 992.5 |
| 20260905083558 | 69 | 46 | 4.0 | 6.0 | 0.00 | 0.00 | 0.00 | 79 | 992.5 |
| 20260905083057 | 70 | 48 | 4.0 | 6.0 | 0.00 | 0.00 | 0.00 | 78 | 992.5 |
| 20260905082557 | 70 | 53 | 3.0 | 6.0 | 0.00 | 0.00 | 0.00 | 78 | 992.5 |
| 20260905082100 | 70 | 360 | 3.0 | 6.0 | 0.00 | 0.00 | 0.00 | 77 | 992.4 |
| 20260905081557 | 70 | 360 | 4.0 | 6.0 | 0.00 | 0.00 | 0.00 | 77 | 992.3 |
| 20260905081055 | 70 | 360 | 4.0 | 6.0 | 0.00 | 0.00 | 0.00 | 76 | 992.3 |
| 20260905080557 | 71 | 360 | 4.0 | 6.0 | 0.00 | 0.00 | 0.00 | 75 | 992.3 |
| 20260905080106 | 71 | 360 | 4.0 | 7.0 | 0.00 | 0.00 | 0.00 | 75 | 992.3 |
| 20260905075551 | 71 | 360 | 4.0 | 7.0 | 0.00 | 0.00 | 0.00 | 74 | 992.4 |
| 20260905075051 | 71 | 360 | 4.0 | 8.0 | 0.00 | 0.00 | 0.00 | 74 | 992.3 |
| 20260905074600 | 71 | 360 | 5.0 | 8.0 | 0.00 | 0.00 | 0.00 | 74 | 992.4 |
| 20260905074050 | 71 | 360 | 5.0 | 8.0 | 0.00 | 0.00 | 0.00 | 73 | 992.3 |
| 20260905073550 | 72 | 360 | 5.0 | 8.0 | 0.00 | 0.00 | 0.00 | 72 | 992.3 |
| 20260905073105 | 72 | 360 | 5.0 | 8.0 | 0.00 | 0.00 | 0.00 | 71 | 992.3 |
| 20260905072548 | 72 | 360 | 4.0 | 7.0 | 0.00 | 0.00 | 0.00 | 71 | 992.4 |
| 20260905072050 | 72 | 360 | 4.0 | 6.0 | 0.00 | 0.00 | 0.00 | 70 | 992.4 |
| 20260905071047 | 73 | 360 | 4.0 | 6.0 | 0.00 | 0.00 | 0.00 | 69 | 992.5 |
| 20260905070545 | 73 | 360 | 4.0 | 6.0 | 0.00 | 0.00 | 0.00 | 68 | 992.5 |
| 20260905070044 | 73 | 360 | 4.0 | 5.0 | 0.00 | 0.00 | 0.00 | 67 | 992.5 |
| 20260905065544 | 74 | 44 | 3.0 | 6.0 | 0.00 | 0.00 | 0.00 | 67 | 992.6 |
| 20260905065043 | 74 | 44 | 4.0 | 6.0 | 0.00 | 0.00 | 0.00 | 67 | 992.6 |
| 20260905064543 | 74 | 360 | 4.0 | 6.0 | 0.00 | 0.00 | 0.00 | 66 | 992.6 |
| 20260905064044 | 74 | 360 | 5.0 | 6.0 | 0.00 | 0.00 | 0.00 | 65 | 992.6 |
| 20260905063542 | 75 | 72 | 4.0 | 6.0 | 0.00 | 0.00 | 0.00 | 64 | 992.7 |
| 20260905063040 | 75 | 74 | 4.0 | 6.0 | 0.00 | 0.00 | 0.00 | 63 | 992.7 |
| 20260905062541 | 76 | 74 | 2.0 | 6.0 | 0.00 | 0.00 | 0.00 | 63 | 992.6 |
| 20260905062040 | 76 | 74 | 3.0 | 5.0 | 0.00 | 0.00 | 0.00 | 63 | 992.6 |
| 20260905061043 | 75 | 360 | 2.0 | 5.0 | 0.00 | 0.00 | 0.00 | 64 | 992.6 |
| 20260905060540 | 75 | 76 | 2.0 | 5.0 | 0.00 | 0.00 | 0.00 | 64 | 992.6 |
| 20260905060058 | 75 | 72 | 4.0 | 6.0 | 0.00 | 0.00 | 0.00 | 63 | 992.6 |
| 20260905055540 | 75 | 73 | 4.0 | 6.0 | 0.00 | 0.00 | 0.00 | 63 | 992.6 |
| 20260905055038 | 76 | 86 | 3.0 | 5.0 | 0.00 | 0.00 | 0.00 | 62 | 992.5 |
| 20260905054553 | 76 | 84 | 4.0 | 6.0 | 0.00 | 0.00 | 0.00 | 61 | 992.5 |
| 20260905054038 | 76 | 86 | 3.0 | 6.0 | 0.00 | 0.00 | 0.00 | 62 | 992.4 |
| 20260905053539 | 76 | 86 | 2.0 | 5.0 | 0.00 | 0.00 | 0.00 | 62 | 992.4 |
| 20260905053037 | 76 | 88 | 1.0 | 5.0 | 0.00 | 0.00 | 0.00 | 63 | 992.2 |
| 20260905052538 | 76 | 89 | 3.0 | 6.0 | 0.00 | 0.00 | 0.00 | 63 | 992.3 |
| 20260905052037 | 76 | 88 | 4.0 | 6.0 | 0.00 | 0.00 | 0.00 | 63 | 992.3 |
| 20260905051037 | 76 | 94 | 3.0 | 6.0 | 0.00 | 0.00 | 0.00 | 63 | 992.2 |
| 20260905050537 | 76 | 91 | 3.0 | 7.0 | 0.00 | 0.00 | 0.00 | 62 | 992.3 |
| 20260905050037 | 76 | 90 | 5.0 | 8.0 | 0.00 | 0.00 | 0.00 | 62 | 992.3 |
| 20260905045539 | 76 | 99 | 5.0 | 8.0 | 0.00 | 0.00 | 0.00 | 63 | 992.2 |
| 20260905045037 | 76 | 89 | 5.0 | 7.0 | 0.00 | 0.00 | 0.00 | 63 | 992.2 |
| 20260905044536 | 76 | 93 | 4.0 | 9.0 | 0.00 | 0.00 | 0.00 | 63 | 992.3 |
| 20260905044035 | 76 | 360 | 6.0 | 9.0 | 0.00 | 0.00 | 0.00 | 62 | 992.2 |
| 20260905043533 | 77 | 96 | 5.0 | 9.0 | 0.00 | 0.00 | 0.00 | 61 | 992.2 |
| 20260905043032 | 77 | 95 | 6.0 | 9.0 | 0.00 | 0.00 | 0.00 | 60 | 992.3 |
| 20260905042530 | 78 | 360 | 7.0 | 13.0 | 0.00 | 0.00 | 0.00 | 59 | 992.3 |
| 20260905042029 | 79 | 108 | 9.0 | 13.0 | 0.00 | 0.00 | 0.00 | 58 | 992.2 |
| 20260905041028 | 80 | 104 | 11.0 | 20.0 | 0.00 | 0.00 | 0.00 | 56 | 992.1 |
| 20260905040528 | 80 | 101 | 9.0 | 20.0 | 0.00 | 0.00 | 0.00 | 56 | 992.0 |
| 20260905040028 | 80 | 108 | 11.0 | 16.0 | 0.00 | 0.00 | 0.00 | 56 | 991.8 |
| 20260905035530 | 81 | 97 | 10.0 | 18.0 | 0.00 | 0.00 | 0.00 | 55 | 991.9 |
| 20260905035026 | 81 | 89 | 12.0 | 18.0 | 0.00 | 0.00 | 0.00 | 55 | 991.9 |
| 20260905034526 | 81 | 108 | 12.0 | 18.0 | 0.00 | 0.00 | 0.00 | 55 | 991.9 |
| 20260905034024 | 82 | 86 | 12.0 | 19.0 | 0.00 | 0.00 | 0.00 | 55 | 991.8 |
| 20260905033522 | 82 | 84 | 12.0 | 19.0 | 0.00 | 0.00 | 0.00 | 54 | 991.8 |
| 20260905033023 | 82 | 86 | 12.0 | 19.0 | 0.00 | 0.00 | 0.00 | 54 | 991.7 |
| 20260905032523 | 82 | 78 | 13.0 | 19.0 | 0.00 | 0.00 | 0.00 | 54 | 991.8 |
| 20260905032022 | 83 | 73 | 11.0 | 22.0 | 0.00 | 0.00 | 0.00 | 53 | 991.7 |
| 20260905031021 | 83 | 360 | 9.0 | 16.0 | 0.00 | 0.00 | 0.00 | 53 | 991.7 |
| 20260905030520 | 83 | 360 | 10.0 | 19.0 | 0.00 | 0.00 | 0.00 | 53 | 991.8 |
| 20260905030021 | 83 | 360 | 10.0 | 19.0 | 0.00 | 0.00 | 0.00 | 53 | 991.7 |
| 20260905025519 | 83 | 46 | 8.0 | 13.0 | 0.00 | 0.00 | 0.00 | 53 | 991.6 |
| 20260905025018 | 83 | 44 | 7.0 | 11.0 | 0.00 | 0.00 | 0.00 | 53 | 991.6 |
| 20260905024537 | 83 | 69 | 7.0 | 14.0 | 0.00 | 0.00 | 0.00 | 52 | 991.9 |
| 20260905024016 | 84 | 48 | 8.0 | 15.0 | 0.00 | 0.00 | 0.00 | 52 | 991.7 |
| 20260905023514 | 84 | 73 | 7.0 | 15.0 | 0.00 | 0.00 | 0.00 | 51 | 991.8 |
| 20260905023019 | 84 | 81 | 8.0 | 13.0 | 0.00 | 0.00 | 0.00 | 51 | 991.9 |
| 20260905022513 | 85 | 69 | 7.0 | 13.0 | 0.00 | 0.00 | 0.00 | 50 | 991.7 |
| 20260905022012 | 85 | 74 | 6.0 | 16.0 | 0.00 | 0.00 | 0.00 | 50 | 991.7 |
| 20260905021012 | 85 | 360 | 8.0 | 16.0 | 0.00 | 0.00 | 0.00 | 49 | 991.6 |
| 20260905020512 | 85 | 75 | 9.0 | 15.0 | 0.00 | 0.00 | 0.00 | 49 | 991.6 |
| 20260905020011 | 85 | 53 | 9.0 | 15.0 | 0.00 | 0.00 | 0.00 | 48 | 991.7 |
| 20260905015512 | 86 | 57 | 5.0 | 9.0 | 0.00 | 0.00 | 0.00 | 47 | 991.5 |
| 20260905015008 | 86 | 75 | 6.0 | 10.0 | 0.00 | 0.00 | 0.00 | 46 | 991.4 |
| 20260905014508 | 87 | 79 | 6.0 | 11.0 | 0.00 | 0.00 | 0.00 | 46 | 991.4 |
| 20260905014007 | 87 | 360 | 6.0 | 13.0 | 0.00 | 0.00 | 0.00 | 45 | 991.2 |
| 20260905013505 | 87 | 85 | 10.0 | 13.0 | 0.00 | 0.00 | 0.00 | 45 | 991.1 |
| 20260905013006 | 88 | 81 | 8.0 | 12.0 | 0.00 | 0.00 | 0.00 | 45 | 991.2 |
| 20260905012503 | 88 | 360 | 7.0 | 12.0 | 0.00 | 0.00 | 0.00 | 45 | 991.2 |
| 20260905012002 | 90 | 360 | 7.0 | 14.0 | 0.00 | 0.00 | 0.00 | 43 | 991.0 |
| 20260905011005 | 90 | 38 | 9.0 | 14.0 | 0.00 | 0.00 | 0.00 | 42 | 991.1 |
| 20260905010502 | 90 | 43 | 8.0 | 14.0 | 0.00 | 0.00 | 0.00 | 41 | 991.2 |
| 20260905010001 | 91 | 50 | 6.0 | 10.0 | 0.00 | 0.00 | 0.00 | 39 | 991.0 |
| 20260905005502 | 91 | 360 | 7.0 | 10.0 | 0.00 | 0.00 | 0.00 | 38 | 991.0 |
| 20260905005001 | 92 | 360 | 6.0 | 11.0 | 0.00 | 0.00 | 0.00 | 37 | 990.9 |
| 20260905004502 | 92 | 360 | 7.0 | 11.0 | 0.00 | 0.00 | 0.00 | 37 | 991.0 |
| 20260905004001 | 92 | 360 | 7.0 | 11.0 | 0.00 | 0.00 | 0.00 | 36 | 990.9 |
| 20260905003501 | 92 | 49 | 6.0 | 11.0 | 0.00 | 0.00 | 0.00 | 35 | 990.8 |
| 20260905003006 | 93 | 360 | 5.0 | 13.0 | 0.00 | 0.00 | 0.00 | 35 | 990.9 |
| 20260905002500 | 93 | 78 | 7.0 | 16.0 | 0.00 | 0.00 | 0.00 | 35 | 990.9 |
| 20260905002100 | 93 | 78 | 10.0 | 16.0 | 0.00 | 0.00 | 0.00 | 35 | 991.0 |
| 20260905001100 | 93 | 79 | 10.0 | 18.0 | 0.00 | 0.00 | 0.00 | 35 | 991.1 |